When you browse on this site, cookies collect data to enhance your experience and personalize the content and advertising you see.
Visit our Privacy Policy to learn more. By continuing to use the site, you agree to this use of cookies and data.
  • In Netherlands
  • List of Countries
  • For 7 days
  • Water Temperature
  • Satellite Maps
  • Weather Map
  • Weather Widgets
  • user-avatar
    Login

    Hourly Weather Albena

    Today, 17 July, Wednesday

    Time Temperature Precipitation Wind Pressure Humidity
    00:00 +18°C° 0 mm 2 mps 742 mmHg 80%
    01:00 +17°C° 0 mm 2 mps 742 mmHg 81%
    02:00 +17°C° 0 mm 2 mps 742 mmHg 82%
    03:00 +17°C° 0 mm 2 mps 742 mmHg 80%
    04:00 +17°C° 0 mm 2 mps 742 mmHg 78%
    05:00 +16°C° 0 mm 3 mps 742 mmHg 77%
    06:00 +18°C° 0 mm 3 mps 742 mmHg 68%
    07:00 +20°C° 0 mm 3 mps 742 mmHg 60%
    08:00 +24°C° 0 mm 3 mps 742 mmHg 51%
    09:00 +25°C° 0 mm 3 mps 742 mmHg 47%
    10:00 +26°C° 0 mm 3 mps 742 mmHg 42%
    11:00 +28°C° 0 mm 3 mps 743 mmHg 38%
    12:00 +28°C° 0 mm 3 mps 742 mmHg 38%
    13:00 +28°C° 0 mm 3 mps 742 mmHg 38%
    14:00 +28°C° 0 mm 3 mps 742 mmHg 38%
    15:00 +28°C° 0 mm 3 mps 742 mmHg 41%
    16:00 +27°C° 0 mm 3 mps 742 mmHg 43%
    17:00 +27°C° 0 mm 3 mps 742 mmHg 46%
    18:00 +25°C° 0 mm 2 mps 741 mmHg 53%
    19:00 +23°C° 0 mm 2 mps 741 mmHg 59%
    20:00 +21°C° 0 mm 1 mps 741 mmHg 66%
    21:00 +21°C° 0 mm 1 mps 741 mmHg 67%
    22:00 +20°C° 0 mm 1 mps 742 mmHg 67%
    23:00 +20°C° 0 mm 1 mps 742 mmHg 68%

    Tomorrow, 18 July, Thursday

    Time Temperature Precipitation Wind Pressure Humidity
    00:00 +20°C° 0 mm 1 mps 742 mmHg 68%
    01:00 +18°C° 0 mm 2 mps 742 mmHg 68%
    02:00 +18°C° 0 mm 2 mps 741 mmHg 68%
    03:00 +18°C° 0 mm 2 mps 742 mmHg 68%
    04:00 +18°C° 0 mm 2 mps 742 mmHg 68%
    05:00 +18°C° 0 mm 3 mps 742 mmHg 68%
    06:00 +19°C° 0 mm 3 mps 742 mmHg 64%
    07:00 +21°C° 0 mm 4 mps 742 mmHg 61%
    08:00 +23°C° 0 mm 4 mps 743 mmHg 57%
    09:00 +25°C° 0 mm 3 mps 743 mmHg 52%
    10:00 +27°C° 0 mm 3 mps 743 mmHg 47%
    11:00 +29°C° 0 mm 2 mps 744 mmHg 41%
    12:00 +28°C° 0 mm 2 mps 744 mmHg 45%
    13:00 +27°C° 0 mm 3 mps 744 mmHg 49%
    14:00 +26°C° 0 mm 3 mps 744 mmHg 53%
    15:00 +26°C° 0 mm 3 mps 744 mmHg 54%
    16:00 +26°C° 0 mm 2 mps 744 mmHg 56%
    17:00 +25°C° 0 mm 2 mps 744 mmHg 57%
    18:00 +24°C° 0 mm 2 mps 744 mmHg 62%
    19:00 +23°C° 0 mm 2 mps 744 mmHg 66%
    20:00 +22°C° 0 mm 1 mps 744 mmHg 71%
    21:00 +21°C° 0 mm 1 mps 745 mmHg 74%
    22:00 +21°C° 0 mm 1 mps 745 mmHg 76%
    23:00 +20°C° 0 mm 1 mps 745 mmHg 79%

    Day after tomorrow, 19 July, Friday

    Time Temperature Precipitation Wind Pressure Humidity
    00:00 +20°C° 0 mm 1 mps 746 mmHg 80%
    01:00 +19°C° 0 mm 1 mps 746 mmHg 80%
    02:00 +19°C° 0 mm 1 mps 746 mmHg 81%
    03:00 +19°C° 0 mm 1 mps 746 mmHg 81%
    04:00 +17°C° 0 mm 0 mps 746 mmHg 81%
    05:00 +17°C° 0 mm 0 mps 746 mmHg 80%
    06:00 +21°C° 0 mm 1 mps 746 mmHg 71%
    07:00 +23°C° 0 mm 1 mps 747 mmHg 62%
    08:00 +25°C° 0 mm 1 mps 747 mmHg 54%
    09:00 +26°C° 0 mm 2 mps 747 mmHg 49%
    10:00 +27°C° 0 mm 2 mps 747 mmHg 45%
    11:00 +29°C° 0 mm 3 mps 747 mmHg 41%
    12:00 +29°C° 0 mm 3 mps 747 mmHg 40%
    13:00 +29°C° 0 mm 4 mps 747 mmHg 40%
    14:00 +29°C° 0 mm 4 mps 747 mmHg 39%
    15:00 +29°C° 0 mm 4 mps 747 mmHg 41%
    16:00 +28°C° 0 mm 4 mps 747 mmHg 44%
    17:00 +27°C° 0 mm 4 mps 747 mmHg 46%
    18:00 +26°C° 0 mm 3 mps 747 mmHg 55%
    19:00 +24°C° 0 mm 3 mps 747 mmHg 64%
    20:00 +21°C° 0 mm 3 mps 747 mmHg 73%
    21:00 +20°C° 0 mm 2 mps 747 mmHg 76%
    22:00 +20°C° 0 mm 2 mps 748 mmHg 78%
    23:00 +19°C° 0 mm 2 mps 748 mmHg 81%

    20 July, Saturday

    Time Temperature Precipitation Wind Pressure Humidity
    00:00 +20°C° 0 mm 1 mps 748 mmHg 81%
    01:00 +19°C° 0 mm 1 mps 748 mmHg 80%
    02:00 +17°C° 0 mm 0 mps 747 mmHg 80%
    03:00 +19°C° 0 mm 1 mps 747 mmHg 79%
    04:00 +19°C° 0 mm 1 mps 747 mmHg 77%
    05:00 +19°C° 0 mm 1 mps 747 mmHg 76%
    06:00 +21°C° 0 mm 1 mps 748 mmHg 66%
    07:00 +23°C° 0 mm 2 mps 748 mmHg 57%
    08:00 +26°C° 0 mm 2 mps 748 mmHg 48%
    09:00 +27°C° 0 mm 3 mps 748 mmHg 46%
    10:00 +28°C° 0 mm 4 mps 748 mmHg 43%
    11:00 +29°C° 0 mm 4 mps 749 mmHg 40%
    12:00 +29°C° 0 mm 4 mps 749 mmHg 40%
    13:00 +29°C° 0 mm 4 mps 749 mmHg 39%
    14:00 +30°C° 0 mm 4 mps 749 mmHg 38%
    15:00 +29°C° 0 mm 4 mps 748 mmHg 39%
    16:00 +28°C° 0 mm 4 mps 748 mmHg 40%
    17:00 +28°C° 0 mm 4 mps 748 mmHg 41%
    18:00 +26°C° 0 mm 3 mps 748 mmHg 52%
    19:00 +24°C° 0 mm 3 mps 748 mmHg 62%
    20:00 +20°C° 0 mm 2 mps 748 mmHg 72%
    21:00 +21°C° 0 mm 1 mps 748 mmHg 74%
    22:00 +20°C° 0 mm 1 mps 749 mmHg 76%
    23:00 +18°C° 0 mm 0 mps 749 mmHg 78%

    21 July, Sunday

    Time Temperature Precipitation Wind Pressure Humidity
    00:00 +20°C° 0 mm 1 mps 749 mmHg 77%
    01:00 +19°C° 0 mm 1 mps 748 mmHg 76%
    02:00 +19°C° 0 mm 1 mps 748 mmHg 76%
    03:00 +19°C° 0 mm 1 mps 748 mmHg 74%
    04:00 +19°C° 0 mm 1 mps 748 mmHg 72%
    05:00 +19°C° 0 mm 1 mps 748 mmHg 70%
    06:00 +21°C° 0 mm 1 mps 748 mmHg 61%
    07:00 +24°C° 0 mm 1 mps 748 mmHg 52%
    08:00 +26°C° 0 mm 1 mps 749 mmHg 43%
    09:00 +28°C° 0 mm 1 mps 749 mmHg 39%
    10:00 +30°C° 0 mm 2 mps 749 mmHg 34%
    11:00 +31°C° 0 mm 2 mps 749 mmHg 29%
    12:00 +31°C° 0 mm 3 mps 749 mmHg 30%
    13:00 +31°C° 0 mm 3 mps 749 mmHg 31%
    14:00 +33°C° 0 mm 4 mps 748 mmHg 32%
    15:00 +32°C° 0 mm 4 mps 748 mmHg 35%
    16:00 +30°C° 0 mm 3 mps 748 mmHg 37%
    17:00 +29°C° 0 mm 3 mps 748 mmHg 40%
    18:00 +27°C° 0 mm 3 mps 748 mmHg 48%
    19:00 +25°C° 0 mm 2 mps 748 mmHg 56%
    20:00 +23°C° 0 mm 1 mps 748 mmHg 64%
    21:00 +22°C° 0 mm 1 mps 748 mmHg 63%
    22:00 +22°C° 0 mm 1 mps 748 mmHg 63%
    23:00 +22°C° 0 mm 1 mps 748 mmHg 63%

    22 July, Monday

    Time Temperature Precipitation Wind Pressure Humidity
    00:00 +22°C° 0 mm 1 mps 748 mmHg 61%
    01:00 +22°C° 0 mm 1 mps 748 mmHg 59%
    02:00 +21°C° 0 mm 1 mps 748 mmHg 58%
    03:00 +21°C° 0 mm 1 mps 747 mmHg 57%
    04:00 +21°C° 0 mm 1 mps 747 mmHg 56%
    05:00 +21°C° 0 mm 1 mps 747 mmHg 55%
    06:00 +24°C° 0 mm 1 mps 747 mmHg 49%
    07:00 +26°C° 0 mm 1 mps 747 mmHg 44%
    08:00 +28°C° 0 mm 1 mps 747 mmHg 38%
    09:00 +30°C° 0 mm 1 mps 747 mmHg 36%
    10:00 +32°C° 0 mm 1 mps 747 mmHg 33%
    11:00 +34°C° 0 mm 2 mps 747 mmHg 30%
    12:00 +34°C° 0 mm 3 mps 747 mmHg 30%
    13:00 +34°C° 0 mm 3 mps 747 mmHg 31%
    14:00 +34°C° 0 mm 4 mps 746 mmHg 31%
    15:00 +33°C° 0 mm 4 mps 746 mmHg 33%
    16:00 +32°C° 0 mm 4 mps 746 mmHg 35%
    17:00 +32°C° 0 mm 4 mps 746 mmHg 38%
    18:00 +29°C° 0 mm 4 mps 746 mmHg 43%
    19:00 +27°C° 0 mm 3 mps 745 mmHg 49%
    20:00 +25°C° 0 mm 3 mps 745 mmHg 54%
    21:00 +24°C° 0 mm 3 mps 745 mmHg 54%
    22:00 +24°C° 0 mm 2 mps 745 mmHg 54%
    23:00 +24°C° 0 mm 2 mps 745 mmHg 54%
    Show more